When you browse on this site, cookies collect data to enhance your experience and personalize the content and advertising you see.
Visit our Privacy Policy to learn more. By continuing to use the site, you agree to this use of cookies and data.
  • In Hungary
  • List of Countries
  • For 7 days
  • Water Temperature
  • Weather Map
  • News
  • Weather Widgets
  • user-avatar
    Login

    Hourly Weather Gavli

    Today, 21 August, Wednesday

    Time Temperature Precipitation Wind Pressure Humidity
    00:00 +21°C° 0 mm 1 mps 754 mmHg 77%
    01:00 +20°C° 0 mm 2 mps 754 mmHg 76%
    02:00 +21°C° 0 mm 1 mps 754 mmHg 78%
    03:00 +19°C° 0 mm 2 mps 754 mmHg 78%
    04:00 +19°C° 0 mm 2 mps 754 mmHg 78%
    05:00 +19°C° 0 mm 2 mps 754 mmHg 78%
    06:00 +20°C° 0 mm 2 mps 754 mmHg 75%
    07:00 +21°C° 0 mm 2 mps 754 mmHg 73%
    08:00 +24°C° 0 mm 2 mps 754 mmHg 70%
    09:00 +25°C° 0 mm 3 mps 754 mmHg 65%
    10:00 +27°C° 0 mm 3 mps 754 mmHg 59%
    11:00 +29°C° 0 mm 3 mps 754 mmHg 54%
    12:00 +30°C° 0 mm 3 mps 754 mmHg 52%
    13:00 +30°C° 0 mm 3 mps 753 mmHg 49%
    14:00 +31°C° 0 mm 3 mps 753 mmHg 47%
    15:00 +31°C° 0 mm 3 mps 753 mmHg 50%
    16:00 +30°C° 0 mm 3 mps 752 mmHg 53%
    17:00 +30°C° 0 mm 3 mps 752 mmHg 56%
    18:00 +28°C° 0 mm 3 mps 752 mmHg 60%
    19:00 +26°C° 0 mm 3 mps 752 mmHg 63%
    20:00 +24°C° 0 mm 3 mps 752 mmHg 66%
    21:00 +24°C° 0 mm 3 mps 752 mmHg 68%
    22:00 +22°C° 0 mm 3 mps 752 mmHg 70%
    23:00 +21°C° 0 mm 3 mps 752 mmHg 72%

    Tomorrow, 22 August, Thursday

    Time Temperature Precipitation Wind Pressure Humidity
    00:00 +21°C° 0 mm 3 mps 752 mmHg 76%
    01:00 +20°C° 0 mm 3 mps 753 mmHg 80%
    02:00 +19°C° 0 mm 3 mps 753 mmHg 85%
    03:00 +19°C° 0.2 mm 3 mps 753 mmHg 88%
    04:00 +19°C° 0.2 mm 4 mps 753 mmHg 91%
    05:00 +18°C° 0.2 mm 4 mps 753 mmHg 94%
    06:00 +17°C° 0 mm 5 mps 753 mmHg 92%
    07:00 +17°C° 0 mm 5 mps 754 mmHg 90%
    08:00 +17°C° 0 mm 5 mps 754 mmHg 88%
    09:00 +17°C° 0 mm 6 mps 755 mmHg 85%
    10:00 +19°C° 0 mm 6 mps 755 mmHg 82%
    11:00 +19°C° 0 mm 6 mps 755 mmHg 79%
    12:00 +20°C° 0 mm 6 mps 755 mmHg 75%
    13:00 +21°C° 0 mm 6 mps 755 mmHg 71%
    14:00 +22°C° 0 mm 5 mps 755 mmHg 68%
    15:00 +21°C° 0 mm 5 mps 755 mmHg 68%
    16:00 +21°C° 0 mm 5 mps 756 mmHg 68%
    17:00 +21°C° 0 mm 5 mps 756 mmHg 68%
    18:00 +20°C° 0 mm 4 mps 756 mmHg 74%
    19:00 +18°C° 0 mm 4 mps 756 mmHg 80%
    20:00 +17°C° 0 mm 3 mps 756 mmHg 86%
    21:00 +16°C° 0 mm 3 mps 757 mmHg 88%
    22:00 +14°C° 0 mm 3 mps 757 mmHg 90%
    23:00 +14°C° 0 mm 3 mps 757 mmHg 92%

    Day after tomorrow, 23 August, Friday

    Time Temperature Precipitation Wind Pressure Humidity
    00:00 +14°C° 0 mm 3 mps 757 mmHg 91%
    01:00 +13°C° 0 mm 3 mps 757 mmHg 91%
    02:00 +13°C° 0 mm 3 mps 757 mmHg 91%
    03:00 +13°C° 0 mm 3 mps 757 mmHg 91%
    04:00 +12°C° 0 mm 3 mps 757 mmHg 92%
    05:00 +12°C° 0 mm 3 mps 757 mmHg 92%
    06:00 +13°C° 0 mm 3 mps 757 mmHg 87%
    07:00 +16°C° 0 mm 3 mps 758 mmHg 82%
    08:00 +17°C° 0 mm 3 mps 758 mmHg 77%
    09:00 +19°C° 0 mm 3 mps 758 mmHg 71%
    10:00 +20°C° 0 mm 3 mps 758 mmHg 65%
    11:00 +21°C° 0 mm 3 mps 758 mmHg 59%
    12:00 +22°C° 0 mm 4 mps 758 mmHg 56%
    13:00 +23°C° 0 mm 4 mps 758 mmHg 54%
    14:00 +23°C° 0 mm 4 mps 757 mmHg 51%
    15:00 +23°C° 0 mm 4 mps 757 mmHg 54%
    16:00 +22°C° 0 mm 3 mps 757 mmHg 57%
    17:00 +22°C° 0 mm 3 mps 757 mmHg 60%
    18:00 +20°C° 0 mm 3 mps 757 mmHg 66%
    19:00 +18°C° 0 mm 3 mps 757 mmHg 71%
    20:00 +16°C° 0 mm 2 mps 757 mmHg 77%
    21:00 +15°C° 0 mm 2 mps 757 mmHg 80%
    22:00 +15°C° 0 mm 2 mps 757 mmHg 82%
    23:00 +14°C° 0 mm 2 mps 757 mmHg 85%

    24 August, Saturday

    Time Temperature Precipitation Wind Pressure Humidity
    00:00 +14°C° 0 mm 2 mps 757 mmHg 86%
    01:00 +13°C° 0 mm 2 mps 758 mmHg 88%
    02:00 +13°C° 0 mm 2 mps 758 mmHg 89%
    03:00 +13°C° 0 mm 2 mps 757 mmHg 90%
    04:00 +12°C° 0 mm 2 mps 757 mmHg 90%
    05:00 +12°C° 0 mm 2 mps 757 mmHg 91%
    06:00 +14°C° 0 mm 2 mps 757 mmHg 85%
    07:00 +16°C° 0 mm 2 mps 757 mmHg 78%
    08:00 +17°C° 0 mm 2 mps 757 mmHg 72%
    09:00 +19°C° 0 mm 2 mps 757 mmHg 65%
    10:00 +21°C° 0 mm 2 mps 757 mmHg 57%
    11:00 +23°C° 0 mm 2 mps 757 mmHg 50%
    12:00 +24°C° 0 mm 2 mps 757 mmHg 48%
    13:00 +24°C° 0 mm 2 mps 756 mmHg 45%
    14:00 +25°C° 0 mm 2 mps 756 mmHg 42%
    15:00 +25°C° 0 mm 2 mps 756 mmHg 45%
    16:00 +25°C° 0 mm 1 mps 755 mmHg 48%
    17:00 +24°C° 0 mm 1 mps 755 mmHg 52%
    18:00 +22°C° 0 mm 1 mps 755 mmHg 56%
    19:00 +20°C° 0 mm 1 mps 755 mmHg 60%
    20:00 +18°C° 0 mm 1 mps 755 mmHg 64%
    21:00 +16°C° 0 mm 1 mps 755 mmHg 67%
    22:00 +15°C° 0 mm 1 mps 755 mmHg 69%
    23:00 +15°C° 0 mm 1 mps 755 mmHg 72%

    25 August, Sunday

    Time Temperature Precipitation Wind Pressure Humidity
    00:00 +14°C° 0 mm 1 mps 755 mmHg 74%
    01:00 +14°C° 0 mm 1 mps 755 mmHg 76%
    02:00 +13°C° 0 mm 0 mps 755 mmHg 78%
    03:00 +12°C° 0 mm 0 mps 755 mmHg 79%
    04:00 +12°C° 0 mm 0 mps 755 mmHg 80%
    05:00 +12°C° 0 mm 0 mps 755 mmHg 81%
    06:00 +15°C° 0 mm 1 mps 755 mmHg 76%
    07:00 +18°C° 0 mm 1 mps 755 mmHg 70%
    08:00 +19°C° 0 mm 1 mps 755 mmHg 64%
    09:00 +21°C° 0 mm 1 mps 755 mmHg 60%
    10:00 +22°C° 0 mm 1 mps 755 mmHg 56%
    11:00 +24°C° 0 mm 1 mps 756 mmHg 52%
    12:00 +24°C° 0 mm 1 mps 755 mmHg 50%
    13:00 +25°C° 0 mm 2 mps 755 mmHg 47%
    14:00 +26°C° 0 mm 2 mps 755 mmHg 45%
    15:00 +25°C° 0 mm 2 mps 755 mmHg 49%
    16:00 +25°C° 0 mm 2 mps 755 mmHg 53%
    17:00 +25°C° 0 mm 2 mps 755 mmHg 57%
    18:00 +23°C° 0 mm 2 mps 755 mmHg 63%
    19:00 +20°C° 0 mm 2 mps 755 mmHg 69%
    20:00 +18°C° 0 mm 2 mps 755 mmHg 74%
    21:00 +17°C° 0 mm 2 mps 755 mmHg 78%
    22:00 +16°C° 0 mm 2 mps 756 mmHg 83%
    23:00 +16°C° 0 mm 2 mps 756 mmHg 87%

    26 August, Monday

    Time Temperature Precipitation Wind Pressure Humidity
    00:00 +15°C° 0 mm 2 mps 756 mmHg 89%
    01:00 +15°C° 0 mm 2 mps 756 mmHg 91%
    02:00 +15°C° 0 mm 2 mps 756 mmHg 93%
    03:00 +15°C° 0 mm 2 mps 756 mmHg 94%
    04:00 +14°C° 0 mm 2 mps 756 mmHg 95%
    05:00 +14°C° 0 mm 2 mps 756 mmHg 96%
    06:00 +16°C° 0 mm 2 mps 756 mmHg 91%
    07:00 +17°C° 0 mm 2 mps 756 mmHg 87%
    08:00 +19°C° 0 mm 3 mps 757 mmHg 82%
    09:00 +20°C° 0 mm 3 mps 757 mmHg 75%
    10:00 +22°C° 0 mm 3 mps 757 mmHg 69%
    11:00 +24°C° 0 mm 3 mps 757 mmHg 62%
    12:00 +25°C° 0 mm 3 mps 756 mmHg 59%
    13:00 +25°C° 0 mm 3 mps 756 mmHg 57%
    14:00 +26°C° 0 mm 3 mps 756 mmHg 55%
    15:00 +25°C° 0 mm 3 mps 755 mmHg 58%
    16:00 +25°C° 0 mm 3 mps 755 mmHg 61%
    17:00 +25°C° 0 mm 3 mps 755 mmHg 64%
    18:00 +22°C° 0 mm 3 mps 755 mmHg 69%
    19:00 +20°C° 0 mm 3 mps 754 mmHg 74%
    20:00 +19°C° 0 mm 3 mps 754 mmHg 80%
    21:00 +18°C° 0 mm 3 mps 754 mmHg 82%
    22:00 +17°C° 0 mm 3 mps 754 mmHg 83%
    23:00 +17°C° 0 mm 3 mps 754 mmHg 85%
    Show more